SCP
0 0 0 0 0 0 0 0 0 0 0 0 0 4 4 4 4 4 4 2 4 2 2 5 3 2 1 1 1 0 1 0 1 1 0 0 1 1 1 2 2 1 1
0 0 0 0 0 0 0 0 0 0 1 0 1 2 2 3 4 4 3 3 3 4 3 3 5 3 3 1 1 1 1 1 0 1 1 1 1 2 2 3 2 1 1
0 0 0 0 0 0 0 0 0 0 0 0 0 0 0 2 3 2 3 3 4 4 5 4 4 4 3 2 1 2 1 1 1 1 1 2 1 2 4 2 2 2 1
0 0 0 0 0 0 0 0 0 0 0 0 0 0 -0 0 0 2 2 2 3 3 3 5 4 4 4 3 2 2 2 1 1 2 1 4 2 2 3 3 2 1 1
0 0 0 0 0 0 0 0 0 0 0 0 0 0 0 0 0 0 1 2 3 3 3 4 4 5 4 3 2 1 3 2 1 1 3 4 3 3 2 2 2 1 1
0 0 0 0 0 0 0 0 0 0 0 0 0 0 -0 0 -0 0 0 1 3 3 3 4 4 4 4 3 3 3 2 3 2 2 2 3 3 2 2 1 1 1 0
0 0 0 0 0 0 0 0 0 0 0 0 0 0 0 0 0 0 0 1 2 3 3 3 4 5 5 4 5 5 4 3 4 4 5 3 2 2 1 1 1 0 0
0 0 0 0 0 0 0 0 0 0 0 0 0 0 0 0 0 0 1 0 1 2 3 3 3 3 4 5 5 6 7 6 6 4 5 4 3 2 1 1 0 0 0
-0 -0 0 0 0 0 0 0 0 0 0 0 0 0 0 0 -0 -0 -0 0 0 1 1 1 1 1 2 2 2 0 0 0 4 7 5 3 3 2 1 0 0 0 0
0 0 0 0 0 0 0 0 0 0 0 0 0 0 0 0 0 -0 -0 0 0 0 0 0 0 0 0 0 0 0 0 0 0 1 3 2 2 1 1 1 0 0 0
0 0 0 0 0 0 0 0 0 0 0 0 0 0 0 0 0 -0 -0 -0 -0 -0 0 0 0 0 0 0 0 0 0 0 -0 -0 2 2 2 2 2 1 1 1 1
0 0 0 0 0 0 0 0 0 0 0 0 0 0 0 0 0 0 -0 -0 -0 -0 0 0 0 0 0 0 0 0 0 0 0 0 2 2 1 1 2 1 1 1 1
0 0 0 0 0 0 0 0 0 0 0 0 0 0 0 0 0 0 0 0 -0 -0 0 0 0 1 0 0 0 0 0 0 0 0 0 0 1 1 1 1 1 1 1
0 0 0 0 0 0 0 0 0 0 0 0 0 0 0 0 0 0 0 0 0 -0 -0 0 0 0 0 0 0 0 -0 -0 -0 -1 0 0 0 0 0 0 0 0 0
0 0 0 0 0 0 0 0 0 0 0 0 -0 0 0 0 0 0 0 0 0 -0 0 0 0 0 0 -0 -0 0 -0 -0 -0 0 0 0 0 0 0 0 0 0 0
0 0 0 0 0 0 0 0 0 0 0 0 0 0 0 0 0 0 0 0 0 0 -0 0 0 -0 0 -0 -0 0 0 -0 -0 0 0 0 0 0 0 0 0 0 0
0 0 0 0 0 0 0 0 0 0 0 0 0 0 0 0 0 0 0 0 0 0 -0 -0 0 0 -0 -0 -0 -0 0 0 0 0 0 0 0 0 0 0 0 0 0
-0 0 0 0 0 0 0 0 0 0 0 0 0 0 0 0 0 0 0 0 0 -0 -0 -0 0 -0 0 -0 -0 -0 0 0 0 0 0 0 0 0 0 0 0 0 0
0 0 0 0 0 0 0 0 0 0 0 0 0 0 0 0 0 0 0 0 0 -0 -0 0 0 0 -0 0 -0 0 0 0 0 0 0 0 0 0 0 0 0 0 0
0 -0 -0 0 0 0 0 0 0 0 0 0 0 0 0 0 0 0 0 0 0 0 -0 0 0 0 0 0 0 0 0 0 0 0 0 0 0 0 0 0 0 0 0
-0 -0 -0 0 0 0 0 0 0 0 0 0 0 0 0 0 0 0 0 0 0 0 0 0 0 0 0 -0 0 0 0 0 0 0 0 0 0 0 0 0 0 0 0
-0 -0 -0 0 0 0 0 0 0 0 0 0 0 0 0 0 0 0 0 0 0 0 0 0 0 0 0 0 0 0 0 0 0 0 0 0 0 0 0 0 0 0 0
0 -0 -0 0 0 0 0 0 0 0 0 0 0 0 0 0 0 0 0 0 0 0 0 0 0 0 0 0 0 0 0 0 0 0 0 0 0 0 0 0 0 0 0
-0 -0 -0 0 0 0 0 0 0 0 0 0 0 0 0 0 0 0 0 0 0 0 -0 0 0 0 0 0 0 0 0 0 0 0 0 0 0 0 0 0 -0 0 0
-0 -0 -0 0 0 0 0 0 0 0 0 0 0 0 0 0 0 0 0 0 0 0 -0 0 0 0 0 0 0 0 0 0 0 0 0 0 0 0 0 0 -0 0 0
-0 -0 -0 0 0 0 0 0 0 0 0 0 0 0 0 0 0 0 0 0 0 0 0 0 0 0 0 0 0 0 0 0 0 0 0 0 0 0 0 0 0 0 0
Wind_Speed_500mb
33 30 33 27 29 33 37 38 33 37 30 38 32 44 59 63 69 72 80 79 74 81 81 85 85 91 90 94 88 86 88 87 82 62 57 54 52 56 57 59 55 53 47
12 14 6 13 18 16 9 3 3 6 10 15 21 27 41 63 72 73 74 77 89 94 88 90 92 96 99 100 100 101 97 94 84 72 60 58 65 51 66 63 60 57 59
42 42 33 27 22 20 18 22 23 25 30 23 17 22 30 44 57 75 78 76 81 90 103 102 102 100 102 107 105 105 100 99 88 80 63 26 36 64 63 66 68 60 54
37 25 26 25 25 23 16 15 22 28 34 38 40 43 42 47 58 66 77 80 84 89 96 103 107 103 101 107 115 106 107 100 94 84 87 60 33 39 39 63 67 57 49
29 25 18 17 13 13 15 16 23 26 36 40 44 48 56 60 63 71 80 80 88 93 97 106 109 110 107 110 111 116 124 115 100 97 95 95 68 45 30 42 61 57 55
21 14 8 5 16 25 26 29 36 42 40 44 47 55 61 69 72 77 83 86 89 96 99 100 106 114 111 109 112 114 116 113 109 106 98 100 93 87 69 48 48 55 56
14 7 8 13 25 31 35 39 38 44 41 46 46 47 56 63 63 80 78 80 90 95 100 102 102 112 119 117 116 108 111 117 124 116 92 87 87 81 74 76 62 59 56
3 9 15 26 33 31 29 33 39 39 48 52 52 49 55 60 65 71 70 72 83 92 95 102 108 107 117 127 118 122 112 123 117 120 109 94 84 79 77 69 63 54 57
15 17 32 35 33 32 37 40 47 53 51 58 59 55 52 59 64 74 73 70 74 85 93 95 102 99 100 114 113 74 87 92 101 115 101 87 88 84 71 70 64 59 54
21 24 6 8 20 30 36 39 39 43 46 47 48 55 57 55 57 67 79 73 70 74 85 87 89 101 99 105 106 105 78 104 101 108 91 78 73 70 64 62 58 59 56
12 10 20 29 35 29 34 42 47 45 43 47 53 52 51 55 62 65 74 77 67 69 68 75 82 92 96 86 61 66 47 34 106 113 59 60 65 65 64 56 53 51 55
19 31 33 32 32 36 34 35 41 40 33 33 31 41 54 62 60 61 65 75 73 71 64 73 71 78 73 71 59 76 64 66 82 54 32 48 54 57 54 47 48 49 52
43 45 43 35 34 38 44 54 58 60 61 60 55 45 40 42 41 44 51 61 69 74 67 66 70 72 80 58 49 44 53 35 24 36 43 52 58 47 43 39 41 39 46
44 38 42 49 54 61 72 82 93 100 103 104 99 95 82 72 60 49 41 43 56 63 65 60 58 62 60 48 40 37 59 58 53 58 64 63 57 49 44 44 36 33 30
40 46 53 60 71 85 94 105 105 108 106 95 101 110 112 111 98 84 64 48 48 58 62 57 51 59 61 65 58 55 56 59 54 56 55 52 47 43 39 39 34 32 34
48 51 52 62 73 78 87 92 101 106 92 90 95 94 92 94 106 110 100 87 53 52 60 64 55 61 56 62 63 56 60 65 63 60 52 47 46 39 33 32 28 30 33
45 53 58 64 75 91 108 107 89 86 85 84 85 82 79 83 82 73 89 100 97 62 57 65 52 62 109 78 72 74 69 68 70 71 73 62 50 39 33 23 18 15 10
59 61 68 80 106 122 92 84 80 81 79 80 76 79 84 81 75 76 78 65 73 93 79 61 68 79 40 63 78 75 74 73 65 71 65 54 48 34 23 17 14 12 15
63 60 80 107 114 85 80 73 72 74 74 74 73 74 76 74 73 73 65 68 68 68 82 58 66 54 73 74 86 84 78 73 74 62 55 52 42 34 25 19 15 10 13
64 82 107 104 82 77 69 67 69 70 71 66 66 64 66 67 68 73 61 65 51 56 75 57 52 57 53 82 72 85 78 81 69 53 56 47 37 30 21 15 10 4 5
79 104 97 80 80 73 67 68 68 69 63 58 58 60 66 68 66 61 52 62 60 48 56 52 44 40 65 47 68 80 76 69 62 56 49 41 31 24 21 15 2 4 7
100 97 83 84 77 68 63 67 66 59 54 55 64 73 76 69 65 61 55 36 57 53 57 50 43 35 42 40 61 80 75 67 60 52 44 29 31 32 23 10 5 13 19
89 80 77 79 73 67 61 63 60 52 50 65 78 83 83 77 63 59 45 53 36 51 63 51 32 22 38 62 58 71 72 68 49 47 35 31 31 31 23 12 16 23 30
76 74 74 74 73 66 62 58 57 41 52 68 82 75 67 70 68 56 39 40 60 42 54 53 30 36 37 55 57 66 67 57 49 41 38 33 33 28 25 19 24 31 30
70 70 69 70 67 65 60 54 39 36 54 66 75 57 63 55 43 42 34 33 44 43 41 67 39 31 33 44 65 76 72 64 55 45 43 40 34 38 37 31 31 35 20
73 74 69 66 63 60 57 47 31 38 53 61 66 58 52 42 23 20 20 23 35 32 34 59 66 27 40 40 50 49 66 71 56 41 47 46 46 46 45 42 35 25 25
Wind_Direction_500mb
234 247 242 227 228 233 257 277 282 285 281 281 282 263 259 256 250 250 248 242 249 249 242 242 242 237 234 233 224 225 225 224 231 231 231 226 227 231 227 232 237 240 250
165 115 89 95 98 86 82 140 229 303 318 326 313 292 282 273 265 262 260 252 246 247 246 244 245 244 239 235 232 228 230 233 233 228 225 233 229 236 232 228 234 248 257
89 82 74 64 46 24 1 347 338 325 314 311 312 302 287 285 283 269 264 256 253 248 247 248 247 244 242 239 235 232 230 234 232 223 218 219 227 229 229 231 242 247 248
82 69 55 41 29 16 5 349 337 323 316 315 312 310 303 291 287 290 280 267 259 254 250 249 252 249 245 241 237 234 233 230 227 225 221 224 224 222 225 235 239 247 247
75 65 48 27 0 352 351 324 327 325 326 323 315 312 307 306 295 282 287 282 267 257 254 251 250 253 248 243 238 238 232 227 229 227 219 221 221 219 222 214 227 237 244
83 69 50 349 339 327 324 323 305 304 310 315 311 305 303 307 309 313 281 279 277 267 259 251 249 251 250 248 243 236 233 229 226 229 224 221 215 224 228 229 231 240 250
73 9 307 307 303 299 299 299 297 296 292 291 296 301 297 300 308 310 299 284 280 276 264 258 249 249 252 249 247 237 235 230 225 225 220 218 219 227 234 232 243 248 249
197 283 272 301 295 287 294 291 294 300 302 294 297 303 301 302 307 308 309 294 280 274 274 265 258 252 253 255 249 246 240 234 226 223 217 218 227 227 230 233 237 241 248
236 264 283 277 266 277 277 278 287 293 291 286 288 290 301 299 305 306 310 301 292 281 272 270 262 260 254 253 252 244 296 273 233 225 219 213 219 227 231 235 242 251 248
272 260 273 286 289 281 281 284 283 284 285 278 280 286 291 299 305 309 309 309 305 294 276 272 270 263 262 261 259 265 269 272 289 232 212 214 218 214 226 234 238 246 256
255 294 300 302 298 296 302 304 304 301 296 286 288 288 284 291 294 303 305 307 310 301 295 280 277 267 261 260 272 268 242 316 272 263 213 210 220 216 224 227 236 237 252
35 33 16 359 347 338 325 319 310 308 303 302 303 303 293 288 291 297 299 304 310 313 299 288 282 267 263 261 249 247 247 253 307 219 223 221 230 227 229 228 234 245 249
13 2 357 353 342 334 323 315 307 302 300 298 297 295 291 292 282 288 303 296 310 320 304 291 283 273 257 243 240 233 242 242 183 207 217 225 228 223 221 226 228 238 246
2 359 347 340 329 322 320 317 313 308 306 299 293 292 290 289 286 287 289 297 295 305 317 296 272 260 245 222 192 166 161 138 188 210 221 221 221 221 218 221 221 217 220
3 349 338 331 320 316 313 313 310 306 309 303 300 294 289 285 283 282 283 286 284 298 302 296 268 249 228 203 183 168 183 193 212 224 220 224 215 209 193 185 186 209 232
351 339 332 325 319 312 308 309 303 302 303 300 298 298 297 293 283 279 276 280 279 293 298 296 246 207 214 196 194 177 195 209 218 208 200 195 183 176 184 201 204 225 240
331 330 328 316 310 312 313 310 308 307 303 300 297 296 296 295 292 287 275 272 272 276 293 283 272 242 230 229 196 197 193 201 198 191 179 175 181 189 188 182 186 203 216
339 327 318 315 318 317 313 312 308 306 304 300 298 295 299 297 291 287 285 276 267 267 273 285 279 254 248 245 224 196 197 197 193 184 175 183 171 172 156 163 182 200 212
328 319 318 319 317 318 317 314 310 311 309 305 301 300 299 295 292 290 278 270 267 262 256 272 273 274 267 262 262 194 193 190 177 179 179 173 167 170 172 170 171 197 232
318 320 320 319 321 323 323 319 316 314 313 316 312 310 306 297 286 271 278 282 280 265 253 265 259 265 247 263 262 197 189 174 173 179 176 178 174 171 174 165 166 107 71
321 323 323 321 324 330 328 319 314 311 316 310 311 311 309 304 301 293 280 266 264 253 247 255 246 248 214 248 188 191 189 190 182 179 179 183 173 182 179 176 231 3 330
328 327 327 326 331 333 326 320 316 320 313 312 309 308 306 302 295 292 273 263 255 250 240 246 250 248 230 230 196 190 188 191 184 184 187 190 180 183 183 177 272 314 321
330 330 327 330 332 334 332 324 325 322 321 321 321 313 313 297 298 287 277 248 259 230 231 239 250 245 205 209 193 176 177 179 191 190 183 184 192 188 190 221 298 317 321
331 334 337 333 333 336 334 332 329 323 321 325 326 316 318 298 295 287 272 254 241 229 225 227 242 224 224 220 197 177 172 171 181 183 185 200 195 205 220 252 303 318 329
340 343 338 337 334 335 336 337 330 323 325 331 332 319 334 321 297 271 265 243 230 234 231 222 226 218 225 197 219 187 171 170 172 180 186 184 200 223 238 271 304 318 328
351 347 345 341 339 338 339 341 340 331 333 340 336 329 345 346 335 287 267 244 219 216 220 223 220 254 216 222 226 196 189 198 200 214 223 227 234 244 259 278 298 308 320
Wind_Speed_850mb
33 30 33 27 29 33 37 38 33 37 30 38 32 44 59 63 69 72 80 79 74 81 81 85 85 91 90 94 88 86 88 87 82 62 57 54 52 56 57 59 55 53 47
12 14 6 13 18 16 9 3 3 6 10 15 21 27 41 63 72 73 74 77 89 94 88 90 92 96 99 100 100 101 97 94 84 72 60 58 65 51 66 63 60 57 59
42 42 33 27 22 20 18 22 23 25 30 23 17 22 30 44 57 75 78 76 81 90 103 102 102 100 102 107 105 105 100 99 88 80 63 26 36 64 63 66 68 60 54
37 25 26 25 25 23 16 15 22 28 34 38 40 43 42 47 58 66 77 80 84 89 96 103 107 103 101 107 115 106 107 100 94 84 87 60 33 39 39 63 67 57 49
29 25 18 17 13 13 15 16 23 26 36 40 44 48 56 60 63 71 80 80 88 93 97 106 109 110 107 110 111 116 124 115 100 97 95 95 68 45 30 42 61 57 55
21 14 8 5 16 25 26 29 36 42 40 44 47 55 61 69 72 77 83 86 89 96 99 100 106 114 111 109 112 114 116 113 109 106 98 100 93 87 69 48 48 55 56
14 7 8 13 25 31 35 39 38 44 41 46 46 47 56 63 63 80 78 80 90 95 100 102 102 112 119 117 116 108 111 117 124 116 92 87 87 81 74 76 62 59 56
3 9 15 26 33 31 29 33 39 39 48 52 52 49 55 60 65 71 70 72 83 92 95 102 108 107 117 127 118 122 112 123 117 120 109 94 84 79 77 69 63 54 57
15 17 32 35 33 32 37 40 47 53 51 58 59 55 52 59 64 74 73 70 74 85 93 95 102 99 100 114 113 74 87 92 101 115 101 87 88 84 71 70 64 59 54
21 24 6 8 20 30 36 39 39 43 46 47 48 55 57 55 57 67 79 73 70 74 85 87 89 101 99 105 106 105 78 104 101 108 91 78 73 70 64 62 58 59 56
12 10 20 29 35 29 34 42 47 45 43 47 53 52 51 55 62 65 74 77 67 69 68 75 82 92 96 86 61 66 47 34 106 113 59 60 65 65 64 56 53 51 55
19 31 33 32 32 36 34 35 41 40 33 33 31 41 54 62 60 61 65 75 73 71 64 73 71 78 73 71 59 76 64 66 82 54 32 48 54 57 54 47 48 49 52
43 45 43 35 34 38 44 54 58 60 61 60 55 45 40 42 41 44 51 61 69 74 67 66 70 72 80 58 49 44 53 35 24 36 43 52 58 47 43 39 41 39 46
44 38 42 49 54 61 72 82 93 100 103 104 99 95 82 72 60 49 41 43 56 63 65 60 58 62 60 48 40 37 59 58 53 58 64 63 57 49 44 44 36 33 30
40 46 53 60 71 85 94 105 105 108 106 95 101 110 112 111 98 84 64 48 48 58 62 57 51 59 61 65 58 55 56 59 54 56 55 52 47 43 39 39 34 32 34
48 51 52 62 73 78 87 92 101 106 92 90 95 94 92 94 106 110 100 87 53 52 60 64 55 61 56 62 63 56 60 65 63 60 52 47 46 39 33 32 28 30 33
45 53 58 64 75 91 108 107 89 86 85 84 85 82 79 83 82 73 89 100 97 62 57 65 52 62 109 78 72 74 69 68 70 71 73 62 50 39 33 23 18 15 10
59 61 68 80 106 122 92 84 80 81 79 80 76 79 84 81 75 76 78 65 73 93 79 61 68 79 40 63 78 75 74 73 65 71 65 54 48 34 23 17 14 12 15
63 60 80 107 114 85 80 73 72 74 74 74 73 74 76 74 73 73 65 68 68 68 82 58 66 54 73 74 86 84 78 73 74 62 55 52 42 34 25 19 15 10 13
64 82 107 104 82 77 69 67 69 70 71 66 66 64 66 67 68 73 61 65 51 56 75 57 52 57 53 82 72 85 78 81 69 53 56 47 37 30 21 15 10 4 5
79 104 97 80 80 73 67 68 68 69 63 58 58 60 66 68 66 61 52 62 60 48 56 52 44 40 65 47 68 80 76 69 62 56 49 41 31 24 21 15 2 4 7
100 97 83 84 77 68 63 67 66 59 54 55 64 73 76 69 65 61 55 36 57 53 57 50 43 35 42 40 61 80 75 67 60 52 44 29 31 32 23 10 5 13 19
89 80 77 79 73 67 61 63 60 52 50 65 78 83 83 77 63 59 45 53 36 51 63 51 32 22 38 62 58 71 72 68 49 47 35 31 31 31 23 12 16 23 30
76 74 74 74 73 66 62 58 57 41 52 68 82 75 67 70 68 56 39 40 60 42 54 53 30 36 37 55 57 66 67 57 49 41 38 33 33 28 25 19 24 31 30
70 70 69 70 67 65 60 54 39 36 54 66 75 57 63 55 43 42 34 33 44 43 41 67 39 31 33 44 65 76 72 64 55 45 43 40 34 38 37 31 31 35 20
73 74 69 66 63 60 57 47 31 38 53 61 66 58 52 42 23 20 20 23 35 32 34 59 66 27 40 40 50 49 66 71 56 41 47 46 46 46 45 42 35 25 25
Wind_Direction_850mb
234 247 242 227 228 233 257 277 282 285 281 281 282 263 259 256 250 250 248 242 249 249 242 242 242 237 234 233 224 225 225 224 231 231 231 226 227 231 227 232 237 240 250
165 115 89 95 98 86 82 140 229 303 318 326 313 292 282 273 265 262 260 252 246 247 246 244 245 244 239 235 232 228 230 233 233 228 225 233 229 236 232 228 234 248 257
89 82 74 64 46 24 1 347 338 325 314 311 312 302 287 285 283 269 264 256 253 248 247 248 247 244 242 239 235 232 230 234 232 223 218 219 227 229 229 231 242 247 248
82 69 55 41 29 16 5 349 337 323 316 315 312 310 303 291 287 290 280 267 259 254 250 249 252 249 245 241 237 234 233 230 227 225 221 224 224 222 225 235 239 247 247
75 65 48 27 0 352 351 324 327 325 326 323 315 312 307 306 295 282 287 282 267 257 254 251 250 253 248 243 238 238 232 227 229 227 219 221 221 219 222 214 227 237 244
83 69 50 349 339 327 324 323 305 304 310 315 311 305 303 307 309 313 281 279 277 267 259 251 249 251 250 248 243 236 233 229 226 229 224 221 215 224 228 229 231 240 250
73 9 307 307 303 299 299 299 297 296 292 291 296 301 297 300 308 310 299 284 280 276 264 258 249 249 252 249 247 237 235 230 225 225 220 218 219 227 234 232 243 248 249
197 283 272 301 295 287 294 291 294 300 302 294 297 303 301 302 307 308 309 294 280 274 274 265 258 252 253 255 249 246 240 234 226 223 217 218 227 227 230 233 237 241 248
236 264 283 277 266 277 277 278 287 293 291 286 288 290 301 299 305 306 310 301 292 281 272 270 262 260 254 253 252 244 296 273 233 225 219 213 219 227 231 235 242 251 248
272 260 273 286 289 281 281 284 283 284 285 278 280 286 291 299 305 309 309 309 305 294 276 272 270 263 262 261 259 265 269 272 289 232 212 214 218 214 226 234 238 246 256
255 294 300 302 298 296 302 304 304 301 296 286 288 288 284 291 294 303 305 307 310 301 295 280 277 267 261 260 272 268 242 316 272 263 213 210 220 216 224 227 236 237 252
35 33 16 359 347 338 325 319 310 308 303 302 303 303 293 288 291 297 299 304 310 313 299 288 282 267 263 261 249 247 247 253 307 219 223 221 230 227 229 228 234 245 249
13 2 357 353 342 334 323 315 307 302 300 298 297 295 291 292 282 288 303 296 310 320 304 291 283 273 257 243 240 233 242 242 183 207 217 225 228 223 221 226 228 238 246
2 359 347 340 329 322 320 317 313 308 306 299 293 292 290 289 286 287 289 297 295 305 317 296 272 260 245 222 192 166 161 138 188 210 221 221 221 221 218 221 221 217 220
3 349 338 331 320 316 313 313 310 306 309 303 300 294 289 285 283 282 283 286 284 298 302 296 268 249 228 203 183 168 183 193 212 224 220 224 215 209 193 185 186 209 232
351 339 332 325 319 312 308 309 303 302 303 300 298 298 297 293 283 279 276 280 279 293 298 296 246 207 214 196 194 177 195 209 218 208 200 195 183 176 184 201 204 225 240
331 330 328 316 310 312 313 310 308 307 303 300 297 296 296 295 292 287 275 272 272 276 293 283 272 242 230 229 196 197 193 201 198 191 179 175 181 189 188 182 186 203 216
339 327 318 315 318 317 313 312 308 306 304 300 298 295 299 297 291 287 285 276 267 267 273 285 279 254 248 245 224 196 197 197 193 184 175 183 171 172 156 163 182 200 212
328 319 318 319 317 318 317 314 310 311 309 305 301 300 299 295 292 290 278 270 267 262 256 272 273 274 267 262 262 194 193 190 177 179 179 173 167 170 172 170 171 197 232
318 320 320 319 321 323 323 319 316 314 313 316 312 310 306 297 286 271 278 282 280 265 253 265 259 265 247 263 262 197 189 174 173 179 176 178 174 171 174 165 166 107 71
321 323 323 321 324 330 328 319 314 311 316 310 311 311 309 304 301 293 280 266 264 253 247 255 246 248 214 248 188 191 189 190 182 179 179 183 173 182 179 176 231 3 330
328 327 327 326 331 333 326 320 316 320 313 312 309 308 306 302 295 292 273 263 255 250 240 246 250 248 230 230 196 190 188 191 184 184 187 190 180 183 183 177 272 314 321
330 330 327 330 332 334 332 324 325 322 321 321 321 313 313 297 298 287 277 248 259 230 231 239 250 245 205 209 193 176 177 179 191 190 183 184 192 188 190 221 298 317 321
331 334 337 333 333 336 334 332 329 323 321 325 326 316 318 298 295 287 272 254 241 229 225 227 242 224 224 220 197 177 172 171 181 183 185 200 195 205 220 252 303 318 329
340 343 338 337 334 335 336 337 330 323 325 331 332 319 334 321 297 271 265 243 230 234 231 222 226 218 225 197 219 187 171 170 172 180 186 184 200 223 238 271 304 318 328
351 347 345 341 339 338 339 341 340 331 333 340 336 329 345 346 335 287 267 244 219 216 220 223 220 254 216 222 226 196 189 198 200 214 223 227 234 244 259 278 298 308 320